Theta_e
321 323 322 323 323 323 323 322 321 321 322 321 321 320 319 319 319 320 320 320 320 320 320 321 322 322 314 302 303 310 320 317 307 305 302 299 296 294 292 293 293 290 292 295 296 295 293
318 321 322 322 322 322 322 322 321 320 321 320 320 319 319 318 318 319 319 318 319 319 319 320 322 322 305 294 312 310 307 307 306 303 300 299 297 296 294 292 292 292 293 294 295 294 294
318 318 317 321 322 321 321 322 321 321 320 320 319 318 318 318 318 318 318 318 318 319 320 320 321 314 300 298 310 307 307 306 305 303 300 301 300 295 295 294 295 294 290 290 292 293 292
316 316 316 315 318 320 320 321 321 321 320 319 319 318 318 317 317 318 318 318 319 320 320 320 321 306 295 308 309 306 306 304 304 305 303 302 302 300 295 295 293 289 287 283 288 293 292
314 314 314 314 315 319 320 320 320 320 319 319 318 317 317 317 317 317 318 319 320 320 320 320 308 298 294 312 304 306 304 303 303 302 302 305 301 295 294 289 285 286 280 282 287 293 292
311 312 314 314 315 315 317 320 320 319 319 318 318 317 317 318 318 318 319 320 320 317 316 314 305 292 298 299 306 305 303 304 300 300 299 298 294 290 288 286 280 282 282 283 283 289 290
308 311 310 312 313 313 314 315 319 320 319 318 318 318 318 318 318 319 315 307 299 298 302 295 295 295 298 304 307 302 303 301 300 295 290 292 288 285 288 287 286 286 285 284 286 290 289
309 309 310 309 309 310 311 312 313 316 317 317 318 318 319 319 319 320 312 302 297 299 294 303 298 300 303 304 299 300 303 296 294 289 291 289 286 290 291 290 289 287 284 284 286 290 289
306 307 308 308 308 308 307 309 310 310 310 311 312 314 317 319 319 314 309 305 312 307 296 300 303 297 299 302 296 298 300 296 291 290 288 286 288 292 291 288 288 285 284 284 285 286 285
305 305 305 305 307 308 307 306 308 307 308 307 308 310 313 317 312 311 307 312 312 308 288 293 298 302 300 300 296 301 300 296 291 290 290 288 291 290 288 288 288 284 289 288 286 283 279
303 303 303 303 304 304 306 307 305 307 305 306 307 307 310 316 310 308 310 312 310 300 275 292 297 303 299 294 295 296 300 296 291 290 290 287 289 288 287 288 289 287 289 286 285 283 281
301 301 300 300 301 302 304 305 307 306 305 305 306 307 309 313 313 313 313 311 306 287 275 291 295 294 294 294 294 296 296 297 295 291 289 288 291 290 289 290 289 291 288 286 284 281 276
302 301 300 300 300 300 301 302 303 304 306 306 305 306 308 310 308 313 313 306 287 274 288 288 290 293 292 290 291 292 291 289 287 284 283 286 287 289 291 288 290 286 283 277 276 275 275
304 304 302 301 300 299 300 300 301 302 304 306 306 305 306 309 311 312 309 296 281 284 287 292 292 293 290 291 290 290 288 286 288 286 283 282 281 289 291 289 287 285 283 278 272 272 275
304 304 305 303 301 300 300 299 299 301 303 305 303 299 302 308 310 311 302 287 285 287 293 291 291 288 288 291 290 289 287 286 289 289 284 282 282 288 289 290 290 286 282 285 279 269 274
304 304 305 305 303 302 302 300 299 301 302 304 296 295 297 306 309 307 295 286 290 294 295 293 288 290 285 288 288 288 287 290 290 292 291 288 283 286 288 290 288 287 289 282 279 271 270
304 304 304 304 305 303 303 301 300 300 302 303 293 287 295 304 308 299 285 287 291 296 296 293 290 289 287 286 287 286 288 289 291 291 292 289 287 283 287 285 285 285 284 284 284 280 275
303 303 304 305 305 304 304 302 300 300 302 297 289 280 295 303 294 295 288 292 296 296 298 296 295 294 289 288 287 287 286 287 293 292 289 290 286 281 283 286 287 285 285 285 280 277 278
301 302 303 304 305 305 305 304 302 300 301 293 285 284 295 301 287 288 292 293 295 294 294 294 293 294 295 292 288 291 291 294 295 292 291 291 285 278 283 284 286 283 285 285 284 281 276
300 301 302 303 304 304 304 304 303 301 302 292 286 280 285 291 292 289 289 290 290 295 295 296 294 295 292 291 293 290 291 295 295 295 297 295 287 284 281 282 286 284 287 287 285 278 279
298 300 301 302 303 303 305 305 304 303 302 293 285 282 284 276 284 287 290 290 288 287 293 294 291 292 290 286 287 289 292 293 294 295 294 292 285 287 287 288 288 287 286 287 285 283 281
298 299 300 301 302 303 303 304 304 304 302 288 285 281 283 281 282 286 287 285 287 288 289 288 287 291 291 287 289 287 290 290 290 291 292 292 284 286 283 285 286 284 285 284 285 285 286
298 298 299 300 301 301 302 303 304 304 300 286 286 292 285 281 281 283 283 284 285 288 289 291 291 289 288 290 291 291 293 293 293 290 288 287 283 281 278 281 282 278 282 284 284 286 286
297 298 298 299 300 300 301 302 302 304 302 289 286 286 277 274 279 282 283 285 284 286 285 287 290 288 289 291 290 288 286 288 289 289 290 283 281 280 275 275 272 280 281 283 285 285 287
296 297 297 297 298 299 300 301 301 302 303 293 288 286 278 268 280 281 282 283 283 284 283 284 286 287 291 288 281 278 275 282 279 280 286 286 282 275 275 266 275 279 280 279 280 280 284
295 296 296 297 297 298 299 300 300 301 302 298 293 290 283 275 275 283 280 282 277 277 278 280 283 285 287 282 276 270 270 272 271 276 283 285 285 279 268 266 265 275 280 282 281 273 281
294 295 296 296 297 297 298 299 299 300 301 298 294 294 288 276 281 283 277 279 282 279 276 275 280 284 284 276 269 269 269 273 271 271 277 281 280 279 270 270 272 279 280 282 271 275 279
294 294 295 295 296 297 297 297 298 299 300 297 294 296 289 281 281 284 285 281 280 279 276 276 281 282 278 278 276 273 270 272 269 272 276 279 276 275 276 274 271 281 280 277 280 282 284
293 294 294 295 295 296 296 297 297 298 298 299 291 296 296 286 286 287 287 289 289 287 282 275 279 276 281 276 274 273 268 268 269 268 277 274 278 274 277 277 282 282 282 284 284 283 283
Wind_Speed
24 13 18 15 13 16 15 15 15 14 13 13 11 9 9 7 6 6 6 5 4 3 5 4 4 4 3 2 2 2 3 3 1 3 5 4 5 5 6 5 4 3 3 3 2 2 3
18 20 18 13 12 14 15 15 15 15 14 13 11 9 8 8 7 5 4 3 4 5 4 5 5 1 2 5 1 4 3 5 3 3 3 3 7 5 5 3 4 4 4 4 2 2 2
16 19 26 11 10 12 14 14 14 14 14 13 12 11 10 9 8 7 6 4 4 4 6 6 5 0 2 2 1 1 4 3 3 3 4 1 3 4 5 5 2 4 4 3 3 3 2
14 16 20 23 8 11 12 12 12 14 13 13 12 10 9 8 7 6 4 2 5 5 7 4 5 1 3 1 1 1 2 3 2 3 4 2 3 6 4 4 7 5 5 3 2 4 1
16 13 15 18 18 9 8 12 13 13 13 12 11 9 8 7 7 5 3 3 6 4 3 2 1 3 2 2 2 1 2 6 3 3 5 3 5 4 5 7 5 6 3 3 5 5 2
14 16 14 16 19 19 17 9 12 12 11 10 9 9 8 7 7 5 3 4 1 1 0 2 0 2 1 5 3 2 1 4 4 4 4 6 6 5 4 4 6 6 3 2 3 3 2
9 14 16 18 18 14 16 20 7 9 11 12 10 7 7 6 5 2 3 4 4 4 1 4 2 2 4 2 1 1 2 4 4 7 5 2 5 6 10 6 3 7 4 2 2 1 2
14 14 14 14 15 13 14 13 17 15 13 10 7 7 6 6 4 2 2 3 5 3 4 1 2 3 2 4 4 1 2 5 4 4 4 6 4 6 6 4 4 3 3 2 3 1 2
10 13 15 13 12 12 11 12 14 13 12 11 9 6 4 5 5 2 3 3 2 1 5 2 2 3 4 5 4 8 4 4 5 5 4 7 2 8 6 4 5 3 5 4 4 2 4
6 9 12 13 14 13 11 10 9 10 12 10 8 7 4 5 3 3 2 0 2 1 5 4 4 4 2 4 3 3 1 5 2 7 8 3 1 6 4 4 5 4 5 4 4 3 2
5 8 9 9 9 8 11 9 8 11 11 10 10 9 10 1 2 4 2 1 0 2 3 3 4 1 3 5 8 2 2 4 9 7 7 6 7 6 3 5 6 5 4 3 3 4 3
2 1 4 4 5 5 7 9 11 6 4 11 10 12 12 0 2 1 1 1 4 7 8 5 3 6 7 2 2 3 2 5 4 5 5 3 1 4 6 3 2 8 7 7 5 3 2
5 4 2 1 2 2 4 6 8 9 8 5 9 12 6 2 3 3 2 4 5 6 2 6 5 5 3 5 4 4 7 6 7 7 4 2 1 0 3 6 4 5 7 2 4 4 6
7 7 6 3 3 0 2 3 6 9 12 11 11 3 3 1 2 4 3 3 5 6 7 3 5 7 7 6 1 3 7 7 3 5 5 8 3 8 5 7 10 7 8 8 8 5 4
7 8 8 7 5 3 3 2 2 7 8 11 7 3 4 3 2 2 5 10 10 6 6 9 5 5 4 4 6 4 6 6 9 10 8 7 4 1 2 3 6 6 4 5 8 3 4
9 9 8 9 9 7 5 1 1 5 7 8 2 2 2 3 2 3 5 6 4 2 3 1 7 6 8 8 6 7 9 5 6 10 2 8 4 1 2 3 3 4 8 4 3 3 4
7 8 9 6 11 9 6 3 2 1 6 6 2 1 3 4 2 3 3 6 4 6 1 4 5 6 6 9 7 6 7 1 3 6 5 5 4 1 4 6 9 3 3 4 5 5 6
8 7 10 11 10 11 9 6 3 1 4 6 2 1 3 3 3 2 4 8 7 5 4 2 4 4 6 7 6 6 9 1 4 4 10 6 5 5 6 2 2 2 7 7 7 5 2
10 11 9 10 10 12 11 9 6 2 4 2 2 1 2 2 4 3 3 5 3 5 3 3 2 2 1 4 5 3 5 3 6 3 9 8 3 4 2 2 2 4 2 4 5 4 7
12 11 11 10 10 11 11 12 9 6 6 4 2 1 3 2 1 4 4 5 6 2 4 3 2 4 4 2 4 6 3 3 5 4 7 4 4 4 11 3 5 6 4 4 5 4 5
15 13 11 11 10 10 13 15 13 10 7 4 2 2 2 3 4 2 4 9 7 5 2 7 4 4 5 3 2 4 2 4 4 6 6 5 4 3 3 2 1 4 7 7 6 5 8
14 16 13 11 10 8 10 15 15 14 11 3 3 2 2 1 3 7 3 7 9 5 10 6 6 15 13 7 6 5 7 5 5 2 3 0 3 3 2 3 3 3 6 4 3 2 5
14 14 14 12 11 10 8 10 16 16 9 3 1 1 3 2 1 5 5 4 5 6 3 3 7 6 8 9 6 3 3 6 7 8 5 7 7 4 4 2 4 7 9 8 5 5 7
14 15 13 14 13 11 10 9 10 17 18 4 3 4 4 4 2 5 4 4 4 4 5 1 3 7 3 9 7 7 10 9 7 5 3 7 6 3 4 2 5 3 2 3 8 5 7
15 16 17 16 15 15 14 12 10 12 19 3 3 5 4 2 2 3 3 4 2 3 3 3 2 2 8 5 5 5 5 4 4 5 3 2 5 5 6 4 8 6 6 7 8 7 8
16 17 17 18 17 16 18 16 14 12 14 5 4 2 4 6 7 5 5 4 4 2 4 3 2 2 4 3 4 6 6 5 4 3 4 3 3 5 3 6 10 5 2 6 6 7 6
15 15 16 18 18 18 18 19 17 15 13 7 3 5 3 3 4 7 5 6 5 3 3 2 1 1 2 3 4 4 4 1 6 8 6 5 2 8 4 3 9 7 5 3 7 9 3
18 18 16 16 17 18 18 17 18 19 16 7 2 9 4 3 4 8 8 6 3 3 5 4 4 2 3 3 4 4 4 6 3 2 6 9 7 5 5 3 12 7 4 7 5 2 6
18 19 20 17 17 17 18 18 18 16 19 14 3 6 7 3 1 2 5 7 14 12 8 2 3 5 5 4 1 4 2 1 4 4 1 3 7 8 9 8 2 5 3 3 5 5 3
Wind_Direction
2 238 214 202 201 175 172 173 172 179 187 173 160 167 179 180 166 176 169 200 218 255 269 296 311 356 143 174 223 111 172 147 140 156 154 146 125 136 147 157 110 118 174 91 97 109 102
1 1 208 196 190 171 167 177 182 177 176 163 157 172 176 182 181 192 210 218 263 273 291 296 327 5 138 184 62 131 157 121 191 147 139 150 176 167 108 136 136 162 132 132 176 183 134
26 26 24 199 178 175 174 182 186 172 171 164 170 177 183 187 199 197 205 225 256 273 301 321 328 200 131 180 342 327 151 132 167 151 132 123 137 90 127 111 149 107 103 23 203 184 181
14 38 37 36 356 178 176 175 176 174 176 166 176 183 192 197 200 222 214 247 278 301 301 305 317 147 169 310 300 149 111 85 121 63 106 112 91 100 76 110 27 70 50 110 278 148 175
21 48 49 46 32 7 201 172 176 176 168 171 177 179 200 213 200 208 234 261 285 294 280 312 342 124 219 13 130 153 178 145 97 50 63 79 68 86 52 92 37 13 180 187 307 187 130
16 43 50 68 53 34 28 208 180 172 163 174 185 182 199 208 213 198 242 244 79 345 299 180 140 101 142 200 147 167 64 114 110 98 64 52 54 79 43 97 196 190 193 231 243 220 128
30 52 55 40 64 47 27 43 189 177 175 173 176 184 196 202 210 224 113 100 61 20 34 183 206 119 113 85 357 14 90 97 81 57 128 26 97 184 198 169 130 134 131 151 256 131 159
44 53 63 62 53 49 36 43 51 62 90 99 126 162 192 206 218 189 114 179 175 155 166 234 123 74 118 172 100 279 151 118 118 139 118 51 221 203 122 161 126 101 100 251 280 38 138
35 58 51 68 56 65 52 28 53 48 47 65 67 72 144 196 210 182 187 178 0 188 106 213 182 160 180 153 140 197 131 126 124 130 156 153 213 138 137 146 143 171 159 198 208 41 53
28 47 60 50 48 43 63 37 45 44 32 31 51 48 36 142 168 178 167 55 10 304 84 226 203 237 130 158 83 308 274 133 108 161 149 196 124 137 142 169 129 161 198 151 148 87 210
31 70 45 47 43 41 35 60 34 41 26 2 16 19 11 199 161 156 133 254 352 58 155 187 156 163 122 161 133 298 277 56 157 161 121 230 164 135 136 191 159 198 112 122 91 97 74
300 16 58 28 44 32 51 29 42 75 350 29 350 5 356 150 101 93 181 136 66 55 236 165 133 168 118 82 76 120 151 52 133 97 45 124 49 149 175 86 109 147 81 49 54 86 343
244 253 217 170 14 42 63 30 15 9 35 345 19 350 349 254 139 285 178 102 76 156 268 185 173 168 109 150 114 149 166 159 149 114 155 66 174 46 133 86 41 81 79 357 349 6 220
242 242 247 233 216 72 74 49 7 348 347 0 2 334 343 215 305 298 115 116 177 202 190 130 117 119 170 146 136 134 124 182 255 91 120 151 228 170 191 171 172 184 155 158 195 194 248
247 255 251 242 226 227 206 163 18 341 348 351 10 16 278 34 298 290 109 184 211 190 168 137 96 120 173 198 135 134 189 192 188 181 147 145 247 68 123 140 138 190 180 157 103 26 67
274 260 266 241 246 240 245 246 304 337 353 0 85 295 149 314 287 77 166 221 241 240 319 148 158 167 170 179 147 170 169 190 207 188 198 198 134 56 161 107 48 155 160 76 9 158 258
313 290 271 258 227 240 253 252 248 332 358 359 33 88 320 348 42 129 185 187 208 261 295 214 177 149 166 170 154 191 197 220 224 190 144 142 113 128 112 205 164 135 166 72 126 153 173
332 309 288 261 227 227 243 229 225 302 9 46 76 149 313 264 177 157 167 169 168 232 17 354 85 98 150 164 142 183 194 124 351 180 173 191 131 160 198 264 251 187 178 153 147 221 242
306 311 309 276 241 226 237 230 213 188 85 109 96 257 302 302 188 172 175 143 197 159 149 313 119 83 66 136 130 131 129 94 28 139 160 180 187 93 80 10 343 204 163 138 114 79 193
288 299 300 287 264 245 222 223 214 194 149 88 108 179 336 23 3 155 160 156 156 130 150 163 84 82 83 80 15 154 133 100 27 64 357 80 91 171 205 179 140 171 170 173 147 158 163
273 272 284 283 267 249 230 224 207 201 173 95 44 257 287 211 241 166 166 176 170 161 237 165 191 161 130 127 180 174 106 27 26 6 18 71 136 94 64 41 46 157 161 178 187 181 183
269 259 266 271 269 260 248 226 210 196 143 77 152 150 8 312 311 164 190 198 183 169 164 192 195 190 183 170 210 187 132 159 194 57 118 53 115 113 139 351 349 295 243 197 197 206 266
261 272 258 258 259 249 243 239 227 202 145 122 254 71 83 318 197 184 212 190 193 148 232 193 163 138 166 179 132 92 105 143 161 146 148 145 139 123 187 339 82 310 239 185 183 200 164
259 262 257 249 249 250 245 242 246 222 187 124 187 114 104 266 197 222 180 160 204 215 176 137 161 148 156 126 98 46 49 58 62 67 121 135 112 93 128 92 207 230 5 76 204 218 227
262 257 254 255 246 243 241 239 238 239 203 146 169 138 139 228 184 210 193 188 194 25 71 133 44 0 159 71 76 61 357 40 347 11 51 96 119 105 152 189 311 280 187 178 166 259 212
264 258 253 250 246 247 244 231 231 237 232 163 195 165 130 124 238 146 170 180 160 155 7 351 320 312 66 85 94 149 181 171 249 357 24 68 86 117 125 146 205 246 306 130 106 274 209
253 255 255 252 249 242 240 241 227 228 228 204 175 186 140 155 240 157 171 170 133 91 127 316 223 83 44 107 101 148 208 209 168 169 162 142 125 187 171 206 283 213 216 156 114 245 187
256 250 247 245 245 241 237 236 240 226 222 197 128 185 190 169 249 187 168 140 113 136 144 227 79 337 48 134 136 184 135 212 112 187 179 168 155 193 141 154 260 155 55 178 196 69 156
268 255 246 235 238 235 234 233 230 233 229 211 169 175 203 230 260 256 246 211 190 177 142 318 170 162 172 105 133 101 117 76 146 216 214 212 176 175 180 204 72 185 172 176 140 145 175